Time,TemperatureF,DewpointF,PressureIn,WindDirection,WindDirectionDegrees,WindSpeedMPH,WindSpeedGustMPH,Humidity,HourlyPrecipIn,Conditions,Clouds,dailyrainin,SoftwareType,DateUTC
2013-02-18 00:08:00,21.1,8.0,30.16,East,97,5.0,23.0,56,0.00,,,0.00,weatherlink.com 1.10,2013-02-18 05:08:00,
2013-02-18 00:23:00,21.0,7.0,30.16,NNW,335,19.0,19.0,56,0.00,,,0.00,weatherlink.com 1.10,2013-02-18 05:23:00,
2013-02-18 00:38:00,20.9,8.0,30.17,NNW,332,9.0,21.0,57,0.00,,,0.00,weatherlink.com 1.10,2013-02-18 05:38:00,
2013-02-18 00:53:00,20.9,7.0,30.17,WNW,290,7.0,25.0,56,0.00,,,0.00,weatherlink.com 1.10,2013-02-18 05:53:00,
2013-02-18 01:08:00,20.7,8.0,30.18,West,281,3.0,18.0,57,0.00,,,0.00,weatherlink.com 1.10,2013-02-18 06:08:00,
2013-02-18 01:23:00,20.7,7.0,30.18,West,269,7.0,17.0,56,0.00,,,0.00,weatherlink.com 1.10,2013-02-18 06:23:00,
2013-02-18 01:38:00,20.5,7.0,30.18,WNW,285,3.0,20.0,57,0.00,,,0.00,weatherlink.com 1.10,2013-02-18 06:38:00,
2013-02-18 01:53:00,20.3,7.0,30.18,SW,228,6.0,21.0,57,0.00,,,0.00,weatherlink.com 1.10,2013-02-18 06:53:00,
2013-02-18 02:08:00,20.2,7.0,30.18,West,273,3.0,13.0,58,0.00,,,0.00,weatherlink.com 1.10,2013-02-18 07:08:00,
2013-02-18 02:23:00,20.2,7.0,30.19,NW,308,5.0,19.0,58,0.00,,,0.00,weatherlink.com 1.10,2013-02-18 07:23:00,
2013-02-18 02:38:00,20.1,8.0,30.19,WNW,284,10.0,12.0,59,0.00,,,0.00,weatherlink.com 1.10,2013-02-18 07:38:00,
2013-02-18 02:53:00,19.9,8.0,30.19,NNW,333,2.0,11.0,60,0.00,,,0.00,weatherlink.com 1.10,2013-02-18 07:53:00,
2013-02-18 03:08:00,19.9,8.0,30.20,NW,304,7.0,14.0,60,0.00,,,0.00,weatherlink.com 1.10,2013-02-18 08:08:00,
2013-02-18 03:23:00,19.7,8.0,30.20,NE,34,1.0,11.0,61,0.00,,,0.00,weatherlink.com 1.10,2013-02-18 08:23:00,
2013-02-18 03:38:00,19.7,8.0,30.21,NW,305,6.0,9.0,61,0.00,,,0.00,weatherlink.com 1.10,2013-02-18 08:38:00,
2013-02-18 03:54:00,19.7,8.0,30.21,West,267,2.0,15.0,61,0.00,,,0.00,weatherlink.com 1.10,2013-02-18 08:54:00,
2013-02-18 04:08:00,19.7,8.0,30.22,West,278,1.0,10.0,61,0.00,,,0.00,weatherlink.com 1.10,2013-02-18 09:08:00,
2013-02-18 04:23:00,19.6,8.0,30.23,NW,308,1.0,7.0,61,0.00,,,0.00,weatherlink.com 1.10,2013-02-18 09:23:00,
2013-02-18 04:38:00,19.6,8.0,30.23,North,352,3.0,9.0,61,0.00,,,0.00,weatherlink.com 1.10,2013-02-18 09:38:00,
2013-02-18 04:53:00,19.4,8.0,30.23,NNW,335,4.0,13.0,62,0.00,,,0.00,weatherlink.com 1.10,2013-02-18 09:53:00,
2013-02-18 05:08:00,19.4,9.0,30.25,West,278,2.0,8.0,63,0.00,,,0.00,weatherlink.com 1.10,2013-02-18 10:08:00,
2013-02-18 05:23:00,19.2,8.0,30.25,NW,322,2.0,9.0,63,0.00,,,0.00,weatherlink.com 1.10,2013-02-18 10:23:00,
2013-02-18 05:38:00,19.0,9.0,30.25,NW,317,6.0,11.0,65,0.00,,,0.00,weatherlink.com 1.10,2013-02-18 10:38:00,
2013-02-18 05:54:00,18.9,9.0,30.27,NW,304,3.0,6.0,65,0.00,,,0.00,weatherlink.com 1.10,2013-02-18 10:54:00,
2013-02-18 06:09:00,18.9,9.0,30.28,NNW,330,0.0,9.0,66,0.00,,,0.00,weatherlink.com 1.10,2013-02-18 11:09:00,
2013-02-18 06:24:00,19.0,9.0,30.28,SSW,203,0.0,6.0,65,0.00,,,0.00,weatherlink.com 1.10,2013-02-18 11:24:00,
2013-02-18 06:39:00,18.8,9.0,30.28,WNW,290,2.0,7.0,66,0.00,,,0.00,weatherlink.com 1.10,2013-02-18 11:39:00,
2013-02-18 06:54:00,18.8,9.0,30.29,West,277,1.0,9.0,66,0.00,,,0.00,weatherlink.com 1.10,2013-02-18 11:54:00,
2013-02-18 07:10:00,18.9,9.0,30.31,WNW,302,1.0,4.0,66,0.00,,,0.00,weatherlink.com 1.10,2013-02-18 12:10:00,
2013-02-18 07:24:00,19.3,10.0,30.31,SW,215,0.0,3.0,67,0.00,,,0.00,weatherlink.com 1.10,2013-02-18 12:24:00,
2013-02-18 07:39:00,19.7,10.0,30.32,NW,326,2.0,4.0,66,0.00,,,0.00,weatherlink.com 1.10,2013-02-18 12:39:00,
2013-02-18 07:54:00,20.4,10.0,30.32,WNW,297,2.0,7.0,65,0.00,,,0.00,weatherlink.com 1.10,2013-02-18 12:54:00,
2013-02-18 08:09:00,21.4,10.0,30.33,NW,318,9.0,10.0,62,0.00,,,0.00,weatherlink.com 1.10,2013-02-18 13:09:00,
2013-02-18 08:24:00,21.8,10.0,30.34,WSW,240,2.0,8.0,61,0.00,,,0.00,weatherlink.com 1.10,2013-02-18 13:24:00,
2013-02-18 08:39:00,22.1,11.0,30.34,NNW,330,4.0,12.0,62,0.00,,,0.00,weatherlink.com 1.10,2013-02-18 13:39:00,
2013-02-18 08:54:00,22.5,10.0,30.34,NW,316,6.0,11.0,59,0.00,,,0.00,weatherlink.com 1.10,2013-02-18 13:54:00,
2013-02-18 09:09:00,23.1,11.0,30.35,WNW,283,2.0,12.0,59,0.00,,,0.00,weatherlink.com 1.10,2013-02-18 14:09:00,
2013-02-18 09:24:00,23.8,11.0,30.35,West,270,3.0,9.0,58,0.00,,,0.00,weatherlink.com 1.10,2013-02-18 14:24:00,
2013-02-18 09:39:00,24.3,11.0,30.35,NNE,16,3.0,10.0,57,0.00,,,0.00,weatherlink.com 1.10,2013-02-18 14:39:00,
2013-02-18 09:54:00,24.5,11.0,30.35,NNE,13,8.0,13.0,56,0.00,,,0.00,weatherlink.com 1.10,2013-02-18 14:54:00,
2013-02-18 10:09:00,25.3,11.0,30.35,West,271,6.0,10.0,55,0.00,,,0.00,weatherlink.com 1.10,2013-02-18 15:09:00,
2013-02-18 10:24:00,25.9,11.0,30.35,WNW,295,2.0,11.0,53,0.00,,,0.00,weatherlink.com 1.10,2013-02-18 15:24:00,
2013-02-18 10:39:00,26.4,10.0,30.36,West,271,4.0,11.0,51,0.00,,,0.00,weatherlink.com 1.10,2013-02-18 15:39:00,
2013-02-18 10:54:00,26.7,12.0,30.36,SW,235,2.0,12.0,53,0.00,,,0.00,weatherlink.com 1.10,2013-02-18 15:54:00,
2013-02-18 11:09:00,27.7,11.0,30.35,NNW,327,4.0,12.0,49,0.00,,,0.00,weatherlink.com 1.10,2013-02-18 16:09:00,
2013-02-18 11:25:00,28.4,11.0,30.35,NNE,20,2.0,8.0,49,0.00,,,0.00,weatherlink.com 1.10,2013-02-18 16:25:00,
2013-02-18 11:40:00,29.3,11.0,30.34,West,280,4.0,9.0,46,0.00,,,0.00,weatherlink.com 1.10,2013-02-18 16:40:00,
2013-02-18 11:54:00,28.8,12.0,30.33,West,270,3.0,10.0,49,0.00,,,0.00,weatherlink.com 1.10,2013-02-18 16:54:00,
2013-02-18 12:10:00,29.9,12.0,30.32,West,274,5.0,7.0,47,0.00,,,0.00,weatherlink.com 1.10,2013-02-18 17:10:00,
2013-02-18 12:25:00,30.8,13.0,30.31,NNW,328,2.0,8.0,47,0.00,,,0.00,weatherlink.com 1.10,2013-02-18 17:25:00,
2013-02-18 12:39:00,30.8,11.0,30.30,WSW,240,5.0,10.0,44,0.00,,,0.00,weatherlink.com 1.10,2013-02-18 17:39:00,
2013-02-18 12:54:00,31.3,12.0,30.29,WNW,301,1.0,9.0,45,0.00,,,0.00,weatherlink.com 1.10,2013-02-18 17:54:00,
2013-02-18 13:09:00,31.9,11.0,30.29,WNW,283,4.0,11.0,42,0.00,,,0.00,weatherlink.com 1.10,2013-02-18 18:09:00,
2013-02-18 13:25:00,32.5,10.0,30.28,NNW,343,2.0,10.0,39,0.00,,,0.00,weatherlink.com 1.10,2013-02-18 18:25:00,
2013-02-18 13:40:00,33.1,12.0,30.27,West,273,0.0,9.0,41,0.00,,,0.00,weatherlink.com 1.10,2013-02-18 18:40:00,
2013-02-18 13:55:00,33.4,11.0,30.27,WNW,283,8.0,11.0,40,0.00,,,0.00,weatherlink.com 1.10,2013-02-18 18:55:00,
2013-02-18 14:10:00,34.2,11.0,30.27,WNW,289,5.0,10.0,39,0.00,,,0.00,weatherlink.com 1.10,2013-02-18 19:10:00,
2013-02-18 14:25:00,34.5,12.0,30.25,West,267,2.0,9.0,39,0.00,,,0.00,weatherlink.com 1.10,2013-02-18 19:25:00,
2013-02-18 14:40:00,35.7,12.0,30.25,SW,214,3.0,8.0,38,0.00,,,0.00,weatherlink.com 1.10,2013-02-18 19:40:00,
2013-02-18 14:55:00,36.0,12.0,30.25,WSW,243,0.0,8.0,37,0.00,,,0.00,weatherlink.com 1.10,2013-02-18 19:55:00,
2013-02-18 15:10:00,36.2,12.0,30.25,WNW,302,3.0,8.0,37,0.00,,,0.00,weatherlink.com 1.10,2013-02-18 20:10:00,
2013-02-18 15:25:00,36.1,11.0,30.25,NNW,329,2.0,7.0,35,0.00,,,0.00,weatherlink.com 1.10,2013-02-18 20:25:00,
2013-02-18 15:40:00,35.9,11.0,30.25,WNW,285,3.0,6.0,36,0.00,,,0.00,weatherlink.com 1.10,2013-02-18 20:40:00,
2013-02-18 15:55:00,35.7,11.0,30.25,West,259,2.0,6.0,36,0.00,,,0.00,weatherlink.com 1.10,2013-02-18 20:55:00,
2013-02-18 16:10:00,36.1,12.0,30.24,WSW,241,0.0,5.0,37,0.00,,,0.00,weatherlink.com 1.10,2013-02-18 21:10:00,
2013-02-18 16:25:00,35.9,12.0,30.23,SSW,195,1.0,5.0,38,0.00,,,0.00,weatherlink.com 1.10,2013-02-18 21:25:00,
2013-02-18 16:40:00,35.9,12.0,30.23,SSW,210,1.0,3.0,38,0.00,,,0.00,weatherlink.com 1.10,2013-02-18 21:40:00,
2013-02-18 16:55:00,36.1,12.0,30.23,SSW,200,1.0,4.0,37,0.00,,,0.00,weatherlink.com 1.10,2013-02-18 21:55:00,
2013-02-18 17:10:00,35.4,13.0,30.23,SW,231,0.0,4.0,39,0.00,,,0.00,weatherlink.com 1.10,2013-02-18 22:10:00,
2013-02-18 17:25:00,34.7,13.0,30.24,SW,229,0.0,1.0,40,0.00,,,0.00,weatherlink.com 1.10,2013-02-18 22:25:00,
2013-02-18 17:40:00,33.8,13.0,30.24,South,173,0.0,1.0,43,0.00,,,0.00,weatherlink.com 1.10,2013-02-18 22:40:00,
2013-02-18 17:55:00,33.3,15.0,30.24,South,174,0.0,2.0,47,0.00,,,0.00,weatherlink.com 1.10,2013-02-18 22:55:00,
2013-02-18 18:10:00,32.5,15.0,30.25,SSE,162,0.0,1.0,49,0.00,,,0.00,weatherlink.com 1.10,2013-02-18 23:10:00,
2013-02-18 18:25:00,31.7,14.0,30.25,WSW,242,0.0,0.0,49,0.00,,,0.00,weatherlink.com 1.10,2013-02-18 23:25:00,
2013-02-18 18:40:00,31.6,15.0,30.25,WSW,242,0.0,1.0,50,0.00,,,0.00,weatherlink.com 1.10,2013-02-18 23:40:00,
2013-02-18 18:55:00,31.3,15.0,30.25,WSW,242,0.0,0.0,51,0.00,,,0.00,weatherlink.com 1.10,2013-02-18 23:55:00,
2013-02-18 19:10:00,30.8,15.0,30.24,SSW,207,0.0,0.0,53,0.00,,,0.00,weatherlink.com 1.10,2013-02-19 00:10:00,
2013-02-18 19:25:00,31.2,16.0,30.24,SSE,156,1.0,2.0,54,0.00,,,0.00,weatherlink.com 1.10,2013-02-19 00:25:00,
2013-02-18 19:40:00,31.1,18.0,30.24,SSE,154,1.0,1.0,58,0.00,,,0.00,weatherlink.com 1.10,2013-02-19 00:40:00,
2013-02-18 19:55:00,31.1,19.0,30.23,SE,144,0.0,1.0,60,0.00,,,0.00,weatherlink.com 1.10,2013-02-19 00:55:00,
2013-02-18 20:10:00,31.0,18.0,30.23,South,174,0.0,2.0,59,0.00,,,0.00,weatherlink.com 1.10,2013-02-19 01:10:00,
2013-02-18 20:25:00,31.0,18.0,30.22,SSE,166,1.0,2.0,60,0.00,,,0.00,weatherlink.com 1.10,2013-02-19 01:25:00,
2013-02-18 20:40:00,31.0,18.0,30.22,SSE,155,1.0,4.0,59,0.00,,,0.00,weatherlink.com 1.10,2013-02-19 01:40:00,
2013-02-18 20:55:00,31.0,18.0,30.23,SSE,159,4.0,5.0,60,0.00,,,0.00,weatherlink.com 1.10,2013-02-19 01:55:00,
2013-02-18 21:10:00,30.8,19.0,30.22,SSE,153,2.0,4.0,62,0.00,,,0.00,weatherlink.com 1.10,2013-02-19 02:10:00,
2013-02-18 21:25:00,30.6,20.0,30.22,SSE,158,3.0,4.0,64,0.00,,,0.00,weatherlink.com 1.10,2013-02-19 02:25:00,
2013-02-18 21:40:00,30.5,20.0,30.21,SSE,156,1.0,5.0,65,0.00,,,0.00,weatherlink.com 1.10,2013-02-19 02:40:00,
2013-02-18 21:55:00,30.3,21.0,30.21,SSE,158,1.0,3.0,68,0.00,,,0.00,weatherlink.com 1.10,2013-02-19 02:55:00,
2013-02-18 22:10:00,30.3,21.0,30.20,SSE,155,1.0,3.0,68,0.00,,,0.00,weatherlink.com 1.10,2013-02-19 03:10:00,
2013-02-18 22:25:00,30.2,21.0,30.20,SE,146,2.0,5.0,69,0.00,,,0.00,weatherlink.com 1.10,2013-02-19 03:25:00,
2013-02-18 22:40:00,30.1,22.0,30.20,SSE,159,2.0,4.0,71,0.00,,,0.00,weatherlink.com 1.10,2013-02-19 03:40:00,
2013-02-18 22:55:00,30.3,22.0,30.19,SSE,155,2.0,5.0,70,0.00,,,0.00,weatherlink.com 1.10,2013-02-19 03:55:00,
2013-02-18 23:10:00,30.1,22.0,30.19,SE,146,3.0,4.0,71,0.00,,,0.00,weatherlink.com 1.10,2013-02-19 04:10:00,
2013-02-18 23:25:00,30.4,21.0,30.18,SE,146,2.0,5.0,69,0.00,,,0.00,weatherlink.com 1.10,2013-02-19 04:25:00,
2013-02-18 23:40:00,30.4,21.0,30.18,SSE,152,1.0,3.0,69,0.00,,,0.00,weatherlink.com 1.10,2013-02-19 04:40:00,
2013-02-18 23:56:00,30.0,21.0,30.18,SE,145,1.0,2.0,69,0.00,,,0.00,weatherlink.com 1.10,2013-02-19 04:56:00,